1488967200.63,4080,8.94,73498.8,4.33,-3.47,-3.23,0,*47
1488967201.84,4081,8.94,73498.8,4.33,-4.85,-4.61,0,*4E
1488967203.05,4082,8.94,73498.8,4.33,-4.73,-4.53,0,*45
1488967204.24,4083,8.94,73500.3,4.33,-4.13,-3.87,0,*4C
1488967205.45,4084,8.94,73496.5,4.33,-3.83,-3.59,0,*46
1488967206.66,4085,8.94,73498.5,4.33,-3.51,-3.23,0,*45
1488967207.91,4086,8.94,73500.0,4.35,-3.71,-3.47,0,*40
1488967209.15,4087,8.94,73500.5,4.35,-3.83,-3.59,0,*43
1488967210.36,4088,8.94,73502.0,4.35,-4.09,-3.79,0,*4B
1488967211.61,4089,8.94,73502.0,4.39,-3.71,-3.47,0,*43
1488967212.85,4090,8.94,73498.5,4.39,-3.71,-3.55,0,*48
1488967214.08,4091,8.94,73500.5,4.39,-4.09,-3.71,0,*47
1488967215.32,4092,8.94,73498.0,4.39,-3.71,-3.47,0,*49
1488967216.55,4093,8.94,73496.5,4.43,-3.59,-3.23,0,*4D
1488967217.77,4094,8.94,73498.0,4.41,-3.75,-3.43,0,*40
1488967218.95,4095,8.94,73500.3,4.41,-4.53,-4.25,0,*45
1488967220.18,4096,8.94,73496.5,4.43,-5.43,-5.15,0,*46
1488967221.38,4097,8.94,73498.5,4.41,-4.81,-4.45,0,*4E
1488967222.57,4098,8.94,73500.0,4.41,-4.33,-3.91,0,*46
1488967223.76,4099,8.94,73496.3,4.41,-4.21,-3.79,0,*42
1488967225.0,4100,8.94,73496.8,4.41,-5.03,-4.69,0,*44
1488967226.18,4101,8.94,73496.8,4.41,-4.65,-4.41,0,*4E
1488967227.36,4102,8.94,73496.0,4.41,-4.33,-4.17,0,*4D
1488967228.62,4103,8.94,73496.8,4.43,-5.03,-4.85,0,*47
1488967229.81,4104,8.94,73496.8,4.41,-4.65,-4.53,0,*48
1488967230.99,4105,8.94,73496.8,4.41,-4.45,-4.41,0,*48
1488967232.17,4106,8.94,73498.5,4.41,-4.57,-4.45,0,*4C
1488967233.4,4107,8.94,73498.5,4.41,-4.89,-4.69,0,*40
1488967234.61,4108,8.94,73496.0,4.43,-4.37,-4.25,0,*40
1488967235.79,4109,8.94,73500.3,4.41,-4.65,-4.45,0,*42
1488967236.99,4110,8.94,73496.5,4.41,-4.77,-4.57,0,*4A
1488967238.23,4111,8.94,73500.3,4.41,-5.19,-5.19,0,*49
1488967239.44,4112,8.94,73496.8,4.39,-5.51,-5.35,0,*47
1488967240.65,4113,8.94,73498.0,4.35,-5.47,-5.39,0,*41
1488967241.91,4114,8.94,73498.3,4.35,-5.07,-4.81,0,*40
1488967243.17,4115,8.94,73498.3,4.35,-5.27,-5.15,0,*4F
1488967244.38,4116,8.94,73498.5,4.35,-4.33,-4.09,0,*44
1488967245.57,4117,8.94,73498.0,4.33,-4.29,-4.09,0,*48
1488967246.75,4118,8.94,73498.0,4.33,-4.41,-4.25,0,*47
1488967247.96,4119,8.94,73498.8,4.35,-4.37,-4.05,0,*43
1488967249.19,4120,8.94,73496.3,4.35,-4.81,-4.57,0,*43
1488967250.4,4121,8.94,73496.8,4.35,-4.25,-3.95,0,*45
1488967251.61,4122,8.94,73496.3,4.35,-4.25,-3.95,0,*46
1488967252.82,4123,8.94,73498.8,4.35,-4.25,-4.09,0,*45
1488967254.03,4124,8.94,73496.0,4.35,-4.25,-3.91,0,*44
1488967255.24,4125,8.94,73498.0,4.33,-3.95,-3.63,0,*42
1488967256.47,4126,8.94,73496.5,4.35,-3.55,-3.27,0,*4B
1488967257.72,4127,8.94,73496.5,4.35,-3.71,-3.47,0,*4A
1488967258.91,4128,8.94,73498.8,4.41,-4.33,-4.13,0,*41
1488967260.14,4129,8.94,73496.5,4.39,-3.79,-3.47,0,*40
1488967261.35,4130,8.94,73496.5,4.39,-4.33,-4.17,0,*43
1488967262.53,4131,8.94,73498.3,4.41,-4.45,-4.29,0,*41
1488967263.72,4132,8.94,73494.0,4.41,-4.21,-3.91,0,*44
1488967264.93,4133,8.94,73494.8,4.41,-3.79,-3.63,0,*42
1488967266.14,4134,8.94,73496.8,4.41,-4.01,-3.75,0,*4A
1488967267.37,4135,8.94,73494.0,4.41,-3.67,-3.55,0,*4E
1488967268.58,4136,8.94,73494.8,4.43,-3.87,-3.75,0,*43
1488967269.76,4137,8.94,73496.8,4.41,-4.29,-4.17,0,*40
1488967270.99,4138,8.94,73496.0,4.43,-3.83,-3.71,0,*4D
1488967272.2,4139,8.94,73494.5,4.45,-3.71,-3.39,0,*4B
1488967273.43,4140,8.94,73492.8,4.43,-3.59,-3.35,0,*45
1488967274.68,4141,8.94,73492.5,4.43,-3.71,-3.47,0,*4B
1488967275.89,4142,8.94,73498.3,4.47,-4.13,-3.91,0,*44
1488967277.08,4143,8.94,73492.3,4.45,-4.09,-3.75,0,*46
1488967278.28,4144,8.94,73498.0,4.45,-3.51,-3.31,0,*4B
1488967279.54,4145,8.94,73494.5,4.47,-3.59,-3.43,0,*45
1488967280.75,4146,8.94,73498.0,4.47,-4.13,-3.95,0,*44
1488967281.98,4147,8.94,73496.5,4.47,-3.67,-3.31,0,*4F
1488967283.17,4148,8.94,73496.8,4.49,-3.95,-3.79,0,*4F
1488967284.36,4149,8.94,73500.0,4.49,-4.09,-3.91,0,*4A
1488967285.56,4150,8.94,73496.8,4.49,-3.27,-2.99,0,*40
1488967286.74,4151,8.94,73496.8,4.49,-4.09,-3.83,0,*40
1488967287.93,4152,8.94,73496.8,4.49,-4.21,-3.95,0,*4E
1488967289.14,4153,8.94,73496.3,4.51,-4.09,-3.75,0,*42
1488967290.34,4154,8.94,73498.5,4.51,-4.05,-3.87,0,*44
1488967291.55,4155,8.94,73496.8,4.49,-3.83,-3.67,0,*4B
1488967292.78,4156,8.94,73498.0,4.51,-4.77,-4.53,0,*4D
1488967293.97,4157,8.94,73496.0,4.49,-4.33,-3.95,0,*48
1488967295.21,4158,8.94,73498.0,4.51,-3.75,-3.43,0,*40
1488967296.39,4159,8.94,73498.0,4.53,-4.05,-3.79,0,*4A
1488967297.56,4160,8.94,73498.8,4.53,-4.45,-4.17,0,*4B
1488967298.76,4161,8.94,73496.0,4.53,-4.21,-3.87,0,*46
1488967299.96,4162,8.94,73496.8,4.53,-3.87,-3.55,0,*41
1488967301.17,4163,8.94,73498.0,4.53,-3.43,-3.31,0,*4A
1488967302.41,4164,8.94,73500.5,4.55,-3.51,-3.27,0,*4F
1488967303.64,4165,8.94,73496.8,4.55,-3.87,-3.59,0,*4C
1488967304.88,4166,8.94,73498.3,4.55,-4.01,-3.87,0,*45
1488967306.14,4167,8.94,73498.8,4.55,-3.63,-3.47,0,*4B
1488967307.32,4168,8.94,73498.5,4.57,-3.23,-3.07,0,*46
1488967308.5,4169,8.94,73498.3,4.57,-4.09,-3.83,0,*44
1488967309.7,4170,8.94,73500.5,4.57,-3.55,-3.23,0,*48
1488967310.91,4171,8.94,73496.3,4.57,-4.01,-3.79,0,*40
1488967312.09,4172,8.94,73500.5,4.61,-4.37,-3.95,0,*41
1488967313.27,4173,8.94,73500.0,4.57,-4.49,-4.25,0,*40
1488967314.48,4174,8.94,73500.5,4.57,-3.95,-3.67,0,*40
1488967315.68,4175,8.94,73498.8,4.61,-4.73,-4.45,0,*4C
1488967316.9,4176,8.94,73496.5,4.61,-3.95,-3.59,0,*4A
1488967318.09,4177,8.94,73500.5,4.61,-3.31,-3.03,0,*4A
1488967319.31,4178,8.94,73498.8,4.61,-3.83,-3.43,0,*48
1488967320.49,4179,8.94,73498.3,4.61,-3.35,-3.15,0,*47
1488967321.72,4180,8.94,73498.3,4.63,-4.69,-4.29,0,*45
1488967322.96,4181,8.94,73498.3,4.63,-3.91,-3.51,0,*4C
1488967324.2,4182,8.94,73498.0,4.63,-3.91,-3.51,0,*4F
1488967325.41,4183,8.94,73500.8,4.65,-3.11,-2.67,0,*44
1488967326.65,4184,8.94,73498.0,4.67,-3.47,-2.95,0,*4F
1488967327.87,4185,8.94,73500.0,4.69,-3.59,-3.03,0,*41
1488967329.07,4186,8.94,73498.8,4.69,-3.19,-2.59,0,*48
1488967330.28,4187,8.94,73500.8,4.69,-3.19,-2.59,0,*49
1488967331.49,4188,8.94,73500.5,4.73,-4.09,-3.63,0,*43
1488967332.66,4189,8.94,73502.0,4.73,-4.99,-4.29,0,*42
1488967333.85,4190,8.94,73504.5,4.73,-4.99,-4.21,0,*42
1488967335.05,4191,8.94,73500.5,4.73,-4.69,-3.83,0,*43
1488967336.25,4192,8.94,73498.5,4.73,-4.93,-4.41,0,*4C
1488967337.45,4193,8.94,73502.0,4.73,-4.69,-4.33,0,*4D
1488967338.65,4194,8.94,73498.3,4.73,-4.73,-4.33,0,*41
1488967339.84,4195,8.94,73500.0,4.73,-4.57,-4.21,0,*45
1488967341.03,4196,8.94,73498.5,4.73,-4.21,-3.95,0,*4F
1488967342.22,4197,8.94,73496.3,4.73,-3.95,-3.75,0,*48
1488967343.43,4198,8.94,73502.0,4.75,-4.09,-3.91,0,*49
1488967344.63,4199,8.94,73500.5,4.75,-4.45,-4.09,0,*46
1488967345.84,4200,8.94,73498.8,4.75,-4.41,-4.17,0,*4E
1488967347.07,4201,8.94,73498.5,4.75,-4.69,-4.41,0,*46
1488967348.3,4202,8.94,73500.5,4.75,-3.91,-3.67,0,*46
1488967349.54,4203,8.94,73498.0,4.75,-3.43,-3.27,0,*4C
1488967350.73,4204,8.94,73498.8,4.77,-3.35,-3.11,0,*4D
1488967351.95,4205,8.94,73500.0,4.75,-3.83,-3.75,0,*41
1488967353.17,4206,8.94,73496.5,4.77,-3.59,-3.27,0,*40
1488967354.35,4207,8.94,73500.5,4.77,-3.23,-2.99,0,*48
1488967355.57,4208,8.94,73498.0,4.77,-3.63,-3.27,0,*47
1488967356.8,4209,8.94,73500.3,4.79,-3.95,-3.67,0,*45
1488967358.04,4210,8.94,73498.3,4.79,-3.75,-3.47,0,*41
1488967359.25,4211,8.94,73500.5,4.79,-4.13,-3.75,0,*46
1488967360.46,4212,8.94,73500.8,4.79,-4.25,-3.95,0,*4E
1488967361.7,4213,8.94,73502.5,4.79,-3.67,-3.31,0,*40
1488967362.91,4214,8.94,73498.5,4.81,-3.95,-3.59,0,*43
1488967364.14,4215,8.94,73496.8,4.79,-3.71,-3.23,0,*42
1488967365.35,4216,8.94,73498.3,4.79,-3.35,-2.99,0,*41
1488967366.59,4217,8.94,73502.5,4.79,-3.83,-3.55,0,*4C
1488967367.82,4218,8.94,73498.0,4.79,-4.85,-4.65,0,*46
1488967369.06,4219,8.94,73500.3,4.79,-3.47,-3.11,0,*4A
1488967370.29,4220,8.94,73502.8,4.79,-3.71,-3.35,0,*43
1488967371.53,4221,8.94,73496.0,4.79,-2.83,-2.55,0,*49
1488967372.71,4222,8.94,73500.5,4.81,-3.19,-2.91,0,*47
1488967373.92,4223,8.94,73498.5,4.85,-2.67,-2.39,0,*48
1488967375.13,4224,8.94,73498.3,4.85,-2.63,-2.31,0,*43
1488967376.34,4225,8.94,73496.3,4.85,-2.55,-2.31,0,*47
1488967377.58,4226,8.94,73496.0,4.87,-2.87,-2.51,0,*4F
1488967378.79,4227,8.94,73496.3,4.87,-3.27,-2.91,0,*49
1488967380.03,4228,8.94,73498.5,4.87,-3.07,-2.75,0,*4E
1488967381.24,4229,8.94,73502.8,4.87,-2.87,-2.43,0,*43
1488967382.45,4230,8.94,73500.8,4.89,-2.51,-2.23,0,*48
1488967383.65,4231,8.94,73500.0,4.91,-2.79,-2.43,0,*4C
1488967384.87,4232,8.94,73500.3,4.93,-3.23,-2.95,0,*48
1488967386.11,4233,8.94,73500.5,4.93,-2.83,-2.47,0,*4D
1488967387.32,4234,8.94,73500.5,4.95,-2.63,-2.39,0,*4B
1488967388.56,4235,8.94,73502.5,4.97,-3.03,-2.67,0,*44
1488967389.77,4236,8.94,73500.5,4.95,-2.27,-1.87,0,*4F
1488967391.0,4237,8.94,73500.5,4.97,-3.55,-3.15,0,*41
1488967392.22,4238,8.94,73498.5,4.99,-2.99,-2.63,0,*41
1488967393.46,4239,8.94,73502.5,4.97,-3.03,-2.75,0,*4B
1488967394.67,4240,8.94,73500.0,4.99,-2.27,-1.87,0,*42
1488967395.89,4241,8.94,73500.8,5.03,-2.11,-1.71,0,*4D
1488967397.1,4242,8.94,73500.8,5.01,-3.35,-3.07,0,*48
1488967398.33,4243,8.94,73502.5,5.03,-3.51,-3.47,0,*4D
1488967399.54,4244,8.94,73498.5,5.03,-3.83,-3.51,0,*42
1488967400.75,4245,8.94,73502.0,5.01,-3.23,-2.95,0,*42
1488967401.99,4246,8.94,73500.3,5.03,-2.59,-1.99,0,*40
1488967403.17,4247,8.94,73502.5,5.03,-3.07,-2.87,0,*47
1488967404.38,4248,8.94,73496.0,5.03,-3.87,-3.59,0,*42
1488967405.59,4249,8.94,73500.0,5.07,-3.43,-3.03,0,*40
1488967406.8,4250,9.0,73504.0,5.07,-2.71,-2.19,0,*42
1488967408.03,4251,8.94,73502.0,5.09,-2.67,-2.27,0,*47
1488967409.27,4252,8.94,73502.3,5.09,-2.67,-2.31,0,*43
1488967410.5,4253,8.94,73500.0,5.13,-3.51,-3.35,0,*48
1488967411.69,4254,8.94,73500.3,5.11,-3.35,-2.99,0,*48
1488967412.89,4255,9.0,73500.8,5.11,-2.91,-2.75,0,*44
1488967414.1,4256,8.94,73500.8,5.11,-3.63,-3.39,0,*42
1488967415.33,4257,8.94,73496.3,5.13,-3.19,-2.75,0,*45
1488967416.54,4258,8.94,73500.8,5.13,-3.19,-2.87,0,*47
1488967417.77,4259,8.94,73502.5,5.13,-2.71,-2.35,0,*40
1488967418.96,4260,9.0,73502.5,5.15,-3.75,-3.35,0,*48
1488967420.17,4261,9.0,73502.5,5.17,-3.15,-2.79,0,*44
1488967421.36,4262,8.94,73500.8,5.15,-3.83,-3.35,0,*43
1488967422.6,4263,8.94,73502.5,5.15,-2.47,-2.07,0,*4B
1488967423.84,4264,8.94,73500.3,5.17,-2.07,-1.55,0,*4E
1488967425.07,4265,8.94,73500.8,5.21,-2.87,-2.51,0,*45
1488967426.27,4266,8.94,73502.5,5.23,-2.67,-2.27,0,*4B
1488967427.48,4267,9.0,73504.0,5.23,-3.11,-2.67,0,*4E
1488967428.7,4268,8.94,73500.0,5.25,-2.63,-2.31,0,*40
1488967429.92,4269,9.0,73502.5,5.25,-2.71,-2.31,0,*42
1488967431.09,4270,8.94,73502.3,5.29,-2.83,-2.43,0,*4E
1488967432.33,4271,8.94,73500.5,5.31,-2.43,-2.07,0,*4A
1488967433.55,4272,8.94,73502.0,5.31,-2.67,-2.27,0,*4D
1488967434.79,4273,8.94,73500.0,5.31,-2.71,-2.43,0,*49
1488967436.0,4274,8.94,73498.8,5.33,-2.11,-1.63,0,*4B
1488967437.24,4275,8.94,73498.8,5.35,-2.03,-1.75,0,*48
1488967438.45,4276,8.94,73500.3,5.37,-2.31,-1.83,0,*41
1488967439.63,4277,8.94,73500.5,5.41,-2.15,-1.71,0,*4A
1488967440.82,4278,8.94,73500.5,5.41,-2.15,-1.71,0,*45
1488967442.02,4279,9.0,73500.0,5.43,-2.23,-1.75,0,*47
1488967443.28,4280,8.94,73498.0,5.43,-2.51,-1.91,0,*4E
1488967444.52,4281,9.0,73500.8,5.43,-3.15,-2.75,0,*47
1488967445.73,4282,9.0,73500.3,5.45,-4.05,-3.59,0,*4B
1488967446.91,4283,8.94,73496.5,5.45,-4.25,-3.83,0,*4F
1488967448.12,4284,9.0,73502.0,5.45,-3.15,-2.71,0,*40
1488967449.3,4285,9.0,73500.5,5.49,-3.39,-3.03,0,*47
1488967450.51,4286,8.94,73500.5,5.45,-3.03,-2.71,0,*45
1488967451.72,4287,9.0,73502.8,5.49,-2.87,-2.51,0,*47
1488967452.94,4288,9.0,73504.8,5.49,-2.95,-2.51,0,*4B
1488967454.14,4289,9.0,73500.8,5.49,-2.83,-2.47,0,*4A
1488967455.35,4290,9.0,73502.3,5.53,-2.75,-2.31,0,*41
1488967456.58,4291,8.94,73500.5,5.51,-2.59,-2.23,0,*4F
1488967457.76,4292,9.0,73502.5,5.53,-2.19,-1.79,0,*46
1488967458.99,4293,9.0,73500.5,5.57,-2.27,-1.99,0,*40
1488967460.2,4294,9.0,73500.5,5.59,-2.51,-2.23,0,*4A
1488967461.44,4295,8.94,73498.8,5.59,-2.47,-1.99,0,*4E
1488967462.67,4296,8.94,73498.8,5.61,-2.67,-2.31,0,*45
1488967463.88,4297,9.0,73502.8,5.63,-2.87,-2.47,0,*49
1488967465.07,4298,9.0,73500.8,5.63,-2.23,-1.95,0,*44
1488967466.25,4299,9.0,73498.3,5.67,-2.83,-2.39,0,*4E
1488967467.48,4300,9.0,73502.5,5.69,-2.99,-2.75,0,*42
1488967468.71,4301,9.0,73498.3,5.69,-2.63,-2.27,0,*41
1488967469.88,4302,9.0,73502.8,5.71,-2.23,-1.75,0,*4B
1488967471.09,4303,9.0,73498.5,5.71,-2.63,-2.15,0,*4B
1488967472.29,4304,9.0,73500.5,5.73,-2.87,-2.35,0,*46
1488967473.52,4305,9.0,73502.5,5.73,-2.71,-2.19,0,*40
1488967474.71,4306,9.0,73500.0,5.75,-2.31,-1.79,0,*44
1488967475.93,4307,9.0,73496.5,5.77,-2.03,-1.55,0,*48
1488967477.16,4308,9.0,73498.3,5.77,-2.43,-1.91,0,*4B
1488967478.37,4309,9.0,73502.8,5.77,-2.95,-2.31,0,*48
1488967479.63,4310,9.0,73502.3,5.81,-2.63,-1.99,0,*41
1488967480.88,4311,9.0,73500.8,5.81,-2.59,-1.83,0,*42
1488967482.12,4312,9.0,73498.3,5.81,-3.35,-2.63,0,*47
1488967483.38,4313,9.0,73502.3,5.85,-3.59,-2.75,0,*4F
1488967484.58,4314,9.0,73496.0,5.85,-3.87,-3.19,0,*40
1488967485.8,4315,9.0,73498.0,5.85,-4.13,-3.43,0,*44
1488967487.02,4316,9.0,73498.8,5.89,-3.91,-3.39,0,*4B
1488967488.23,4317,9.0,73502.0,5.89,-4.61,-4.25,0,*48
1488967489.45,4318,9.0,73500.5,5.85,-4.85,-4.41,0,*43
1488967490.66,4319,9.0,73498.5,5.85,-4.21,-3.75,0,*4C
1488967491.89,4320,9.0,73498.5,5.85,-3.19,-2.71,0,*4F
1488967493.14,4321,9.0,73496.8,5.89,-3.15,-2.71,0,*4E
1488967494.38,4322,9.0,73500.8,5.89,-2.91,-2.51,0,*42
1488967495.6,4323,9.0,73500.5,5.91,-3.91,-3.43,0,*49
1488967496.79,4324,9.0,73500.0,5.91,-4.65,-4.05,0,*47
1488967498.02,4325,9.0,73496.8,5.89,-4.69,-3.79,0,*4F
1488967499.24,4326,9.0,73500.3,5.91,-4.01,-2.91,0,*4C
1488967500.48,4327,9.0,73500.8,5.91,-3.67,-2.63,0,*47
1488967501.68,4328,9.0,73498.3,5.95,-3.95,-3.07,0,*42
1488967502.92,4329,9.0,73500.5,5.93,-4.17,-3.43,0,*48
1488967504.15,4330,9.0,73498.3,5.97,-4.41,-3.71,0,*46
1488967505.38,4331,9.0,73498.5,5.97,-4.25,-3.51,0,*47
1488967506.6,4332,9.0,73502.0,5.95,-5.15,-4.49,0,*4A
1488967507.88,4333,9.0,73500.8,5.93,-5.69,-5.11,0,*4A
1488967509.06,4334,9.0,73500.0,5.95,-4.99,-4.49,0,*49
1488967510.26,4335,9.0,73498.8,5.95,-4.65,-4.37,0,*42
1488967511.46,4336,9.0,73500.3,5.95,-4.25,-4.25,0,*46
1488967512.65,4337,9.0,73502.5,5.95,-4.65,-4.65,0,*47
1488967513.88,4338,9.0,73496.0,5.95,-5.55,-5.65,0,*4B
1488967515.14,4339,9.0,73498.0,5.93,-5.73,-5.61,0,*4C
1488967516.34,4340,9.0,73498.0,5.91,-5.47,-5.43,0,*47
1488967517.55,4341,9.0,73496.3,5.91,-4.69,-4.41,0,*48
1488967518.76,4342,9.0,73498.5,5.89,-4.25,-3.95,0,*44
1488967519.97,4343,9.0,73502.0,5.89,-4.61,-4.25,0,*49
1488967521.19,4344,9.0,73498.3,5.89,-4.25,-3.79,0,*40
1488967522.43,4345,9.0,73496.5,5.89,-3.71,-3.07,0,*4E
1488967523.63,4346,9.0,73498.5,5.89,-4.45,-3.95,0,*46
1488967524.83,4347,9.0,73498.8,5.89,-4.45,-3.91,0,*43
1488967526.05,4348,9.0,73496.0,5.89,-3.79,-3.15,0,*48
1488967527.26,4349,9.0,73498.8,5.89,-3.95,-3.15,0,*4B
1488967528.51,4350,9.0,73500.5,5.93,-4.21,-3.51,0,*40
1488967529.76,4351,9.0,73498.0,5.93,-4.89,-4.21,0,*43
1488967530.96,4352,9.0,73496.8,5.91,-4.41,-3.63,0,*47
1488967532.19,4353,9.0,73498.0,5.91,-5.31,-4.65,0,*41
1488967533.4,4354,9.0,73500.5,5.89,-5.51,-4.99,0,*4A
1488967534.61,4355,9.0,73498.8,5.91,-5.97,-5.73,0,*4D
1488967535.83,4356,9.0,73498.3,5.89,-6.31,-6.13,0,*4D
1488967537.08,4357,9.0,73498.3,5.89,-5.73,-5.73,0,*4C
1488967538.31,4358,9.0,73500.0,5.89,-4.73,-4.45,0,*46
1488967539.57,4359,9.0,73498.3,5.89,-5.15,-4.73,0,*43
1488967540.81,4360,9.0,73498.5,5.85,-6.35,-5.81,0,*48
1488967542.02,4361,9.0,73498.5,5.83,-6.35,-5.81,0,*4F
1488967543.2,4362,9.0,73496.5,5.79,-6.73,-6.13,0,*43
1488967544.44,4363,9.0,73498.8,5.81,-6.63,-6.23,0,*47
1488967545.62,4364,9.0,73496.3,5.79,-6.77,-6.39,0,*49
1488967546.87,4365,9.0,73496.5,5.77,-6.63,-6.19,0,*41
1488967548.08,4366,9.0,73500.8,5.75,-6.09,-5.81,0,*4E
1488967549.29,4367,9.0,73496.0,5.75,-6.09,-5.77,0,*46
1488967550.47,4368,9.0,73498.0,5.75,-6.01,-5.55,0,*41
1488967551.68,4369,9.0,73494.5,5.75,-6.35,-5.93,0,*4D
1488967552.91,4370,9.0,73496.5,5.71,-6.19,-5.73,0,*41
1488967554.14,4371,9.0,73496.3,5.73,-6.01,-5.65,0,*4C
1488967555.37,4372,9.0,73496.8,5.73,-6.01,-5.77,0,*4C
1488967556.57,4373,9.0,73502.3,5.71,-5.61,-5.43,0,*4D
1488967557.8,4374,9.0,73498.5,5.71,-5.85,-5.61,0,*40
1488967559.06,4375,9.0,73498.5,5.73,-4.89,-4.85,0,*45
1488967560.26,4376,9.0,73498.0,5.73,-4.37,-4.25,0,*49
1488967561.46,4377,9.0,73498.0,5.73,-4.37,-4.13,0,*4D
1488967562.68,4378,9.0,73500.3,5.73,-4.37,-4.01,0,*41
1488967563.91,4379,9.0,73498.3,5.73,-4.41,-4.01,0,*41
1488967565.11,4380,9.0,73496.3,5.73,-3.75,-3.23,0,*40
1488967566.34,4381,9.0,73498.3,5.77,-4.09,-3.59,0,*44
1488967567.56,4382,9.0,73496.8,5.77,-4.09,-3.51,0,*4F
1488967568.75,4383,9.0,73496.3,5.79,-4.41,-3.67,0,*49
1488967569.93,4384,9.0,73496.8,5.79,-3.87,-2.91,0,*4B
1488967571.13,4385,9.0,73500.5,5.81,-3.87,-2.91,0,*4D
1488967572.35,4386,9.0,73498.8,5.81,-4.77,-3.91,0,*47
1488967573.56,4387,9.0,73502.3,5.83,-6.55,-5.81,0,*41
1488967574.75,4388,9.0,73502.0,5.83,-6.31,-5.51,0,*41
1488967575.96,4389,9.0,73496.3,5.83,-5.51,-4.85,0,*4D
1488967577.18,4390,9.0,73498.8,5.83,-5.51,-5.03,0,*4A
1488967578.41,4391,9.0,73500.5,5.83,-6.23,-5.89,0,*4F
1488967579.65,4392,9.0,73498.8,5.83,-5.81,-5.93,0,*4C
1488967580.83,4393,9.0,73496.8,5.83,-6.47,-6.69,0,*42
1488967582.03,4394,9.0,73494.5,5.83,-6.59,-6.97,0,*4B
1488967583.28,4395,9.0,73498.3,5.81,-4.77,-5.15,0,*4F
1488967584.48,4396,9.0,73496.8,5.81,-4.13,-4.33,0,*4B
1488967585.69,4397,9.0,73496.5,5.81,-4.13,-4.25,0,*4D
1488967586.92,4398,9.0,73498.5,5.81,-3.51,-3.39,0,*49
1488967588.11,4399,9.0,73498.0,5.83,-3.75,-3.35,0,*40
1488967589.31,4400,9.0,73500.0,5.85,-3.95,-3.19,0,*41
1488967590.52,4401,9.0,73498.3,5.85,-3.75,-2.87,0,*48
1488967591.72,4402,9.0,73498.5,5.85,-4.21,-3.19,0,*4B
1488967592.95,4403,9.0,73496.3,5.89,-4.49,-3.59,0,*4C
1488967594.17,4404,9.0,73492.5,5.89,-4.61,-3.91,0,*45
1488967595.39,4405,9.0,73498.3,5.93,-3.87,-3.11,0,*48
1488967596.6,4406,9.0,73494.8,5.93,-4.17,-3.75,0,*47
1488967597.82,4407,9.0,73496.0,5.95,-3.95,-3.51,0,*4B
1488967599.03,4408,9.0,73492.8,5.95,-3.71,-3.23,0,*4B
1488967600.22,4409,9.06,73498.8,5.95,-4.37,-3.95,0,*42
1488967601.46,4410,9.0,73494.5,5.97,-3.39,-2.71,0,*4A
1488967602.68,4411,9.0,73498.0,5.99,-3.67,-2.83,0,*43
1488967603.9,4412,9.0,73496.0,6.01,-3.79,-3.11,0,*47
1488967605.14,4413,9.0,73492.8,6.05,-3.63,-3.19,0,*41
1488967606.36,4414,9.0,73498.5,6.05,-4.25,-3.75,0,*49
1488967607.57,4415,9.0,73496.3,6.05,-4.49,-3.95,0,*4C
1488967608.82,4416,9.0,73494.8,6.07,-3.47,-2.71,0,*4F
1488967610.01,4417,9.0,73496.5,6.07,-3.23,-2.35,0,*4C
1488967611.23,4418,9.0,73494.3,6.13,-4.65,-3.55,0,*44
1488967612.46,4419,9.06,73496.3,6.13,-4.65,-3.63,0,*40
1488967613.69,4420,9.0,73492.0,6.13,-4.81,-4.09,0,*4B
1488967614.96,4421,9.0,73494.5,6.13,-5.31,-4.81,0,*40
1488967616.16,4422,9.0,73494.0,6.15,-6.09,-5.55,0,*45
1488967617.37,4423,9.0,73494.3,6.15,-6.01,-5.65,0,*4F
1488967618.61,4424,9.0,73494.5,6.13,-6.43,-6.27,0,*4D
1488967619.88,4425,9.06,73498.8,6.13,-5.31,-5.07,0,*4B
1488967621.12,4426,9.06,73496.5,6.09,-4.69,-4.61,0,*4E
1488967622.33,4427,9.0,73494.3,6.15,-4.99,-5.07,0,*4C
1488967623.57,4428,9.0,73496.8,6.09,-4.81,-4.99,0,*41
1488967624.81,4429,9.0,73494.3,6.13,-4.57,-4.81,0,*49
1488967626.05,4430,9.0,73494.8,6.13,-5.55,-5.61,0,*4D
1488967627.33,4431,9.0,73494.3,6.09,-5.81,-5.65,0,*4A
1488967628.56,4432,9.0,73492.3,6.09,-4.69,-4.25,0,*4B
1488967629.81,4433,9.06,73492.8,6.09,-3.91,-3.43,0,*4D
1488967631.05,4434,9.06,73494.5,6.13,-5.61,-5.51,0,*4D
1488967632.3,4435,9.0,73494.3,6.09,-5.93,-5.35,0,*48
1488967633.53,4436,9.06,73496.0,6.09,-4.89,-4.45,0,*47
1488967634.75,4437,9.06,73498.0,6.09,-4.61,-4.09,0,*48
1488967635.97,4438,9.06,73494.3,6.09,-4.33,-3.83,0,*45
1488967637.24,4439,9.06,73494.8,6.09,-5.23,-4.85,0,*45
1488967638.45,4440,9.06,73494.3,6.13,-4.65,-4.41,0,*4B
1488967639.69,4441,9.0,73492.5,6.09,-3.95,-3.71,0,*4D
1488967640.91,4442,9.06,73498.3,6.13,-4.53,-4.21,0,*4A
1488967642.14,4443,9.06,73496.0,6.13,-3.67,-3.27,0,*4A
1488967643.33,4444,9.0,73494.8,6.15,-4.41,-3.91,0,*45
1488967644.52,4445,9.06,73496.0,6.15,-4.57,-4.05,0,*49
1488967645.74,4446,9.06,73494.8,6.17,-4.13,-3.75,0,*48
1488967646.93,4447,9.0,73492.5,6.19,-4.45,-4.21,0,*42
1488967648.17,4448,9.0,73492.8,6.19,-5.65,-5.27,0,*49
1488967649.44,4449,9.06,73494.5,6.17,-5.19,-4.77,0,*49
1488967650.66,4450,9.06,73494.8,6.15,-5.93,-5.55,0,*40
1488967651.9,4451,9.06,73492.5,6.17,-5.97,-5.69,0,*48
1488967653.11,4452,9.06,73492.3,6.15,-6.01,-5.77,0,*4A
1488967654.36,4453,9.06,73492.8,6.09,-5.47,-5.11,0,*47
1488967655.58,4454,9.0,73492.0,6.13,-4.65,-4.29,0,*40
1488967656.81,4455,9.0,73492.3,6.13,-4.81,-4.33,0,*40
1488967658.04,4456,9.06,73496.3,6.13,-4.69,-4.29,0,*4E
1488967659.27,4457,9.06,73494.0,6.13,-4.81,-4.65,0,*41
1488967660.48,4458,9.06,73496.3,6.15,-4.99,-4.85,0,*4F
1488967661.68,4459,9.06,73496.0,6.15,-3.91,-3.79,0,*45
1488967662.91,4460,9.0,73494.3,6.15,-3.55,-3.43,0,*4E
1488967664.12,4461,9.06,73496.5,6.17,-3.23,-3.15,0,*4F
1488967665.37,4462,9.06,73496.0,6.17,-2.95,-2.71,0,*43
1488967666.61,4463,9.06,73498.5,6.17,-3.03,-2.75,0,*48
1488967667.82,4464,9.06,73494.5,6.19,-2.91,-2.55,0,*49
1488967669.04,4465,9.06,73492.5,6.21,-2.59,-2.31,0,*45
1488967670.22,4466,9.06,73496.5,6.21,-3.87,-3.79,0,*49
1488967671.41,4467,9.06,73496.3,6.21,-4.37,-4.21,0,*4E
1488967672.6,4468,9.06,73496.3,6.21,-4.57,-4.37,0,*40
1488967673.85,4469,9.06,73494.3,6.23,-3.83,-3.67,0,*4F
1488967675.09,4470,9.06,73496.8,6.23,-2.99,-2.75,0,*4F
1488967676.3,4471,9.06,73494.3,6.23,-3.15,-2.91,0,*41
1488967677.52,4472,9.06,73492.8,6.23,-3.39,-3.19,0,*4D
1488967678.71,4473,9.06,73496.0,6.25,-3.27,-3.07,0,*4A
1488967679.93,4474,9.06,73496.8,6.25,-2.87,-2.63,0,*45
1488967681.13,4475,9.06,73498.8,6.25,-2.43,-2.15,0,*4D
1488967682.32,4476,9.06,73498.0,6.25,-1.79,-1.63,0,*46
1488967683.56,4477,9.06,73494.5,6.27,-1.95,-1.63,0,*47
1488967684.8,4478,9.06,73494.8,6.35,-1.79,-1.43,0,*4B
1488967686.01,4479,9.06,73494.5,6.35,-2.15,-1.79,0,*4A
1488967687.25,4480,9.06,73492.5,6.39,-3.03,-2.71,0,*4D
1488967688.49,4481,9.06,73492.3,6.39,-3.03,-2.59,0,*46
1488967689.72,4482,9.06,73494.0,6.41,-2.47,-1.91,0,*4C
1488967690.96,4483,9.06,73492.3,6.41,-2.67,-2.07,0,*43
1488967692.17,4484,9.06,73490.8,6.41,-3.55,-3.11,0,*42
1488967693.44,4485,9.06,73490.0,6.43,-5.23,-4.85,0,*4C
1488967694.68,4486,9.06,73492.0,6.41,-5.27,-4.89,0,*45
1488967695.91,4487,9.06,73490.8,6.41,-5.11,-4.77,0,*40
1488967697.14,4488,9.06,73492.8,6.39,-4.77,-4.49,0,*4C
1488967698.38,4489,9.06,73492.5,6.39,-3.63,-3.27,0,*40
1488967699.62,4490,9.06,73494.5,6.39,-3.11,-2.71,0,*4F
1488967700.85,4491,9.06,73496.3,6.43,-3.43,-2.87,0,*4D
1488967702.1,4492,9.06,73496.0,6.43,-3.63,-2.95,0,*4F
1488967703.31,4493,9.06,73496.5,6.45,-3.07,-2.07,0,*41
1488967704.52,4494,9.06,73498.0,6.47,-3.19,-1.75,0,*4D
1488967705.73,4495,9.06,73498.5,6.49,-3.55,-1.71,0,*4E
1488967706.97,4496,9.06,73494.8,6.57,-4.21,-1.95,0,*4C
1488967708.18,4497,9.06,73494.0,6.57,-4.37,-2.43,0,*42
1488967709.42,4498,9.06,73494.5,6.61,-5.85,-4.57,0,*43
1488967710.67,4499,9.06,73492.5,6.61,-6.09,-5.11,0,*46
1488967711.88,4500,9.06,73492.8,6.63,-5.97,-5.15,0,*45
1488967713.1,4501,9.06,73494.0,6.63,-5.97,-5.27,0,*45
1488967714.36,4502,9.06,73492.3,6.65,-5.27,-4.73,0,*4B
1488967715.57,4503,9.06,73492.5,6.65,-6.73,-6.05,0,*4B
1488967716.78,4504,9.06,73494.0,6.67,-6.93,-6.43,0,*42
1488967718.01,4505,9.06,73492.5,6.67,-6.81,-6.19,0,*4F
1488967719.22,4506,9.06,73494.5,6.67,-7.73,-6.73,0,*4C
1488967720.44,4507,9.06,73496.5,6.69,-9.89,-8.81,0,*4B
1488967721.68,4508,9.06,73494.3,6.69,-8.93,-8.51,0,*43
1488967722.91,4509,9.06,73490.3,6.69,-8.21,-7.99,0,*40
1488967724.15,4510,9.06,73492.3,6.67,-7.91,-8.11,0,*4D
1488967725.39,4511,9.06,73492.5,6.69,-7.19,-7.43,0,*4A
1488967726.62,4512,9.06,73488.5,6.69,-7.05,-6.77,0,*42
1488967727.84,4513,9.06,73494.0,6.71,-6.93,-6.59,0,*48
1488967729.05,4514,9.06,73492.8,6.71,-6.93,-6.39,0,*49
1488967730.27,4515,9.06,73492.8,6.73,-7.11,-6.55,0,*4B
1488967731.48,4516,9.06,73492.0,6.73,-6.85,-6.31,0,*46
1488967732.69,4517,9.06,73494.8,6.73,-6.85,-6.31,0,*47
1488967733.9,4518,9.06,73494.0,6.73,-6.55,-6.09,0,*4E